******************************************************************************* JPL/HORIZONS ZTF (C/2022 E3) 2023-Oct-03 17:11:56 Rec #:90004702 (+COV) Soln.date: 2023-Sep-28_17:13:06 # obs: 5212 (2021-2023) IAU76/J2000 helio. ecliptic osc. elements (au, days, deg., period=Julian yrs): EPOCH= 2459867.5 ! 2022-Oct-15.0000000 (TDB) RMSW= n.a. EC= 1.000301326210908 QR= 1.11224587136223 TP= 2459957.2851616312 OM= 302.5549498011619 W= 145.8148314357331 IN= 109.1694336087512 A= -3691.168677330921 MA= -.000394605200885047ADIST= 9.999999E99 PER= 9.999999E99 N= 4.395E-6 ANGMOM= .025658399 DAN= 12.8957 DDN= 1.21743 L= 135.1279026 B= 32.0537473 MOID= .22085699 TP= 2023-Jan-12.7851616312 Comet physical (GM= km^3/s^2; RAD= km): GM= n.a. RAD= n.a. M1= 10.8 M2= n.a. k1= 4.5 k2= n.a. PHCOF= n.a. Comet non-gravitational force model (AMRAT=m^2/kg;A1-A3=au/d^2;DT=days;R0=au): AMRAT= 0. DT= 0. A1= 0. A2= -1.397470682859E-9 A3= -1.283612251282E-9 Standard model: ALN= .1112620426 NK= 4.6142 NM= 2.15 NN= 5.093 R0= 2.808 COMET comments 1: soln ref.= JPL#66, data arc: 2021-10-25 to 2023-09-28 2: k1=4.5; ******************************************************************************* ******************************************************************************* Ephemeris / WWW_USER Tue Oct 3 17:11:56 2023 Pasadena, USA / Horizons ******************************************************************************* Target body name: ZTF (C/2022 E3) {source: JPL#66} Center body name: Sun (10) {source: DE441} Center-site name: BODY CENTER ******************************************************************************* Start time : A.D. 2495-Jan-01 00:00:00.0000 TDB Stop time : A.D. 2499-Jan-01 00:00:00.0000 TDB Step-size : 4 calendar years ******************************************************************************* Center geodetic : 0.0, 0.0, 0.0 {E-lon(deg),Lat(deg),Alt(km)} Center cylindric: 0.0, 0.0, 0.0 {E-lon(deg),Dxy(km),Dz(km)} Center radii : 696000.0, 696000.0, 696000.0 km {Equator_a, b, pole_c} Keplerian GM : 2.9591220828411951E-04 au^3/d^2 Small perturbers: Yes {source: SB441-N16} Output units : AU-D, deg, Julian Day Number (Tp) Calendar mode : Mixed Julian/Gregorian Output type : GEOMETRIC osculating elements Output format : 10 Reference frame : Ecliptic of J2000.0 ******************************************************************************* Initial IAU76/J2000 heliocentric ecliptic osculating elements (au, days, deg.): EPOCH= 2459867.5 ! 2022-Oct-15.0000000 (TDB) RMSW= n.a. EC= 1.000301326210908 QR= 1.11224587136223 TP= 2459957.2851616312 OM= 302.5549498011619 W= 145.8148314357331 IN= 109.1694336087512 Equivalent ICRF heliocentric cartesian coordinates (au, au/d): X=-1.396228434708351E-01 Y=-1.367704418095846E+00 Z= 1.132828045138420E+00 VX=-7.766547316606155E-03 VY= 1.643904549642630E-02 VZ= 1.319772488346896E-03 Comet physical (GM= km^3/s^2; RAD= km): GM= n.a. RAD= n.a. M1= 10.8 M2= n.a. k1= 4.5 k2= n.a. PHCOF= n.a. Comet non-gravitational force model (AMRAT=m^2/kg;A1-A3=au/d^2;DT=days;R0=au): AMRAT= 0. DT= 0. A1= 0. A2= -1.397470682859E-9 A3= -1.283612251282E-9 Standard model: ALN= .1112620426 NK= 4.6142 NM= 2.15 NN= 5.093 R0= 2.808 ******************************************************************************* JDTDB EC QR IN OM W Tp N MA TA A AD PR ******************************************************************************* $$SOE 2632340.500000000 = A.D. 2495-Jan-01 00:00:00.0000 TDB EC= 1.000005762474772E+00 QR= 1.065660527285835E+00 IN= 1.042310488147491E+02 OM= 3.069527639489538E+02 W = 1.470139184643934E+02 Tp= 2460105.429013297893 N = 1.239336699500994E-08 MA= 2.134572444149789E-03 TA= 1.735742544259036E+02 A =-1.849310529330153E+05 AD= 9.999999999999998E+99 PR= 9.999999999999998E+99 2633801.500000000 = A.D. 2499-Jan-01 00:00:00.0000 TDB EC= 9.999244391414434E-01 QR= 9.886675388196740E-01 IN= 1.107941610666706E+02 OM= 3.011289749529990E+02 W = 1.449772974646046E+02 Tp= 2459435.138790590689 N = 6.585276082940102E-07 MA= 1.148250628141872E-01 TA= 1.738714970274496E+02 A = 1.308438730981007E+04 AD= 2.616778595208133E+04 PR= 5.466741188461641E+08 $$EOE ******************************************************************************* TIME Barycentric Dynamical Time ("TDB" or T_eph) output was requested. This continuous coordinate time is equivalent to the relativistic proper time of a clock at rest in a reference frame co-moving with the solar system barycenter but outside the system's gravity well. It is the independent variable in the solar system relativistic equations of motion. TDB runs at a uniform rate of one SI second per second and is independent of irregularities in Earth's rotation. CALENDAR SYSTEM Mixed calendar mode was active such that calendar dates after AD 1582-Oct-15 (if any) are in the modern Gregorian system. Dates prior to 1582-Oct-5 (if any) are in the Julian calendar system, which is automatically extended for dates prior to its adoption on 45-Jan-1 BC. The Julian calendar is useful for matching historical dates. The Gregorian calendar more accurately corresponds to the Earth's orbital motion and seasons. A "Gregorian-only" calendar mode is available if such physical events are the primary interest. REFERENCE FRAME AND COORDINATES Ecliptic at the standard reference epoch Reference epoch: J2000.0 X-Y plane: adopted Earth orbital plane at the reference epoch Note: IAU76 obliquity of 84381.448 arcseconds wrt ICRF X-Y plane X-axis : ICRF Z-axis : perpendicular to the X-Y plane in the directional (+ or -) sense of Earth's north pole at the reference epoch. Symbol meaning [1 au= 149597870.700 km, 1 day= 86400.0 s]: JDTDB Julian Day Number, Barycentric Dynamical Time EC Eccentricity, e QR Periapsis distance, q (au) IN Inclination w.r.t X-Y plane, i (degrees) OM Longitude of Ascending Node, OMEGA, (degrees) W Argument of Perifocus, w (degrees) Tp Time of periapsis (Julian Day Number) N Mean motion, n (degrees/day) MA Mean anomaly, M (degrees) TA True anomaly, nu (degrees) A Semi-major axis, a (au) AD Apoapsis distance (au) PR Sidereal orbit period (day) ABERRATIONS AND CORRECTIONS Geometric osculating elements have NO corrections or aberrations applied. Computations by ... Solar System Dynamics Group, Horizons On-Line Ephemeris System 4800 Oak Grove Drive, Jet Propulsion Laboratory Pasadena, CA 91109 USA General site: https://ssd.jpl.nasa.gov/ Mailing list: https://ssd.jpl.nasa.gov/email_list.html System news : https://ssd.jpl.nasa.gov/horizons/news.html User Guide : https://ssd.jpl.nasa.gov/horizons/manual.html Connect : browser https://ssd.jpl.nasa.gov/horizons/app.html#/x API https://ssd-api.jpl.nasa.gov/doc/horizons.html command-line telnet ssd.jpl.nasa.gov 6775 e-mail/batch https://ssd.jpl.nasa.gov/ftp/ssd/hrzn_batch.txt scripts https://ssd.jpl.nasa.gov/ftp/ssd/SCRIPTS Author : Jon.D.Giorgini@jpl.nasa.gov ******************************************************************************* !$$SOF COMMAND = '2022 E3' TABLE_TYPE = 'ELEMENTS' START_TIME = '2495-01-01' STOP_TIME = '2499-01-01' STEP_SIZE = '4 year' CENTER = '@sun' OUT_UNITS = 'AU-D'